星链-5324 (STARLINK-5324 )

导读 | 豆包AI

STARLINK-5324是美国SpaceX公司西雅图分部制造的星链系列商业通信卫星,NORAD编号55677,于2023年2月17日在西部靶场使用猎鹰9火箭发射,运行在近地轨道,近地点约568公里、远地点约572公里,倾角约70度,整星湿质量305千克,承担全球卫星互联网通信服务任务,是星链星座组网的组成部分。

Basic Information
目录编号:
55677
目录名称:
STARLINK-5324
国际标识:
2023-021BB
轨道中心:
EARTH
卫星名称:
星链-5324
卫星全名:
星链-5324 (STARLINK-5324 )
卫星状态:
在轨 (已飞行1122 天)
发射日期:
2023-02-17 UTC
国别 :
美国 (US)
星等 :
--
Orbit Information
数据来源 国际轨道数据 AOE轨道数据
星历时间 2026-03-15T14:19:46+0800
12小时前
查看轨道信息
2026-03-13T09:00:00+0800
2天前
查看轨道信息
半长轴 6950.201km 6950.185km
偏心率 0.0003553 0.0003227
轨道倾角 69.999° 70.000°
近地点辐角 271.752° 277.827°
升交点赤经 130.361° 135.963°
平近点角 88.323° 339.898°
近地点 569.594km 569.805km
远地点 574.534km 574.291km
周期 96.107分钟 96.107分钟
每日圈数 14.983275 14.983326
Detailed Information
固有亮度:
5
最大亮度:
2.5
卫星平台:
Starlink v1.5
覆盖范围:
全球
运营商:
太空探索技术公司
运营商所在国:
美国
制造商(研发单位):
太空探索技术公司
制造商所在国:
美国
使用方式:
暂无
Satellite Introduction
星链(Starlink)计划是由太空探索技术公司(SpaceX)提出的一个巨型低轨卫星互联网星座项目,计划在2019年至2024年间在太空搭建由约1.2万颗卫星组成的“星链”网络,其中1584颗将部署在地球上空550千米处的近地轨道,并从2020年开始工作。该卫星仍在工作。
2D Orbit Map
3D Orbit Map
Orbit Altitude Analysis Chart
Orbit Inclination Analysis Chart
Orbit Comprehensive Analysis Chart
View Comprehensive Chart